Regional Weather Roundup
Issued by NWS

Home | Current Version | Previous Version | Graphics & Text | Print | Product List | Glossary On
Versions: 1 2 3 4 5 6 7 8 9 10 11 12 13 14 15 16 17 18 19 20 21 22 23 24 25 26 27
000
ASUS45 KBOI 250810
RWRID

IDAHO REGIONAL WEATHER ROUNDUP
NATIONAL WEATHER SERVICE BOISE ID
200 AM MDT THU AUG 25 2016

NOTE: "FAIR" INDICATES FEW OR NO CLOUDS BELOW 12000 FEET
WITH NO SIGNIFICANT WEATHER AND/OR OBSTRUCTIONS TO VISIBILITY

IDZ012-014-250900-
SOUTHWEST IDAHO


CITY           SKY/WX    TMP DP  RH WIND       PRES   REMARKS
BOISE          CLEAR     60  37  42 S6        30.06R
CALDWELL       CLEAR     62  41  46 W9        30.05S
MOUNTAIN HOME  CLEAR     56  30  37 NW6       30.07R
$$

IDZ016-017-250900-
SOUTHCENTRAL IDAHO


CITY           SKY/WX    TMP DP  RH WIND       PRES   REMARKS
JEROME         CLEAR     59  31  34 E14       30.16S
TWIN FALLS     PTCLDY    54  28  36 N3        30.16R
$$

IDZ019>023-250900-
SOUTHEAST IDAHO


CITY           SKY/WX    TMP DP  RH WIND       PRES   REMARKS
IDAHO FALLS    CLEAR     49  36  61 N8        30.23R
POCATELLO      CLEAR     54  35  48 NE9       30.19S
REXBURG        CLEAR     48  36  63 E3        30.24R
$$

IDZ006-010-011-018-031-032-250900-
CENTRAL IDAHO MOUNTAINS


CITY           SKY/WX    TMP DP  RH WIND       PRES   REMARKS
MCCALL         CLEAR     58  36  43 CALM      30.21S
HAILEY         CLEAR     50  32  50 NW8       30.23S
STANLEY          N/A     41  27  57 S3        30.29R
SALMON         CLEAR     61  32  33 SE14      30.25R
CHALLIS        CLEAR     55  31  39 W8        30.24S
$$

IDZ002-004-006-007-026-250900-
NORTHERN IDAHO


CITY           SKY/WX    TMP DP  RH WIND       PRES   REMARKS
LEWISTON       CLEAR     64  41  42 SE6       30.12S
LOWELL           N/A     55  48  77 NW3       30.18R
COEUR D`ALENE  CLEAR     57  39  51 NE8       30.18S
MULLAN PASS    CLEAR     51  31  46 SE3       30.33F
$$




USA.gov is the U.S. government's official web portal to all federal, state and local government web resources and services.